Regional Weather Roundup
Issued by NWS Tiyan, Guam

Home | Current Version | Previous Version | Text Only | Print | Product List | Glossary On
Versions: 1 2 3 4 5 6 7 8 9 10 11 12 13 14 15 16 17 18 19 20 21 22 23 24 25 26 27 28 29 30 31 32 33 34 35 36 37 38 39 40 41 42 43 44 45 46 47 48 49 50
000
ASGM40 PGUM 250812
RWRGUM
WEATHER ROUNDUP FOR THE MARIANAS
NATIONAL WEATHER SERVICE TIYAN GU
600 PM CHST THU DEC 25 2014

GUZ001>004-250900-
MARIANA ISLANDS-

CITY           SKY/WX    TMP DP  RH WIND       PRES   REMARKS
GUAM AIRPORT   PTCLDY    82  79  89 E13       29.83R HX  93
ANDERSEN AFB   MOCLDY    81  77  89 NE16      29.84R
ROTA AIRPORT   MOCLDY    79  77  94 E14       29.85R
TINIAN AP      MOCLDY    81  77  89 E16       29.82R
SAIPAN AP      CLOUDY    81  75  83 E20G26    29.83R

$$



USA.gov is the U.S. government's official web portal to all federal, state and local government web resources and services.